Location: Argonnex
(45.9500°N, 6.1333°E)
Time: 08:56:53
(UTC+00:00)

CZ-6A DEB - Pass Details

Date: 22 February 2024
Orbit: 827 x 907 km, 98.8° (Epoch: 12 April)

Event Time Altitude Azimuth Distance (km) Brightness Sun altitude
Rises 04:52:27 0° 21° (NNE) 3,461 ? -17.3°
Reaches altitude 10° 04:55:05 10° 31° (NNE) 2,506 ? -16.8°
Maximum altitude 05:00:07 35° 96° (E) 1,350 ? -15.9°
Drops below altitude 10° 05:05:03 10° 161° (SSE) 2,446 ? -15.1°
Sets 05:07:35 0° 170° (S) 3,368 ? -14.6°
